Weather History for Hagerstown, MD

Change the Weather History Date:

Wednesday, June 12, 2013

  Actual Average Record
Temperature  
Mean Temperature 77 °F -  
Max Temperature 86 °F 77 °F 89 °F (2002)
Min Temperature 68 °F 58 °F 55 °F (1999)
Cooling Degree Days 12    
Month to date cooling degree days 70  
Year to date cooling degree days 187  
Since 1 June cooling degree days 70  
Growing Degree Days 27 (Base 50)    
Moisture  
Dew Point 64 °F    
Average Humidity 65    
Maximum Humidity 84    
Minimum Humidity 45    
Precipitation  
Precipitation 0.00 in - - ()
Month to date precipitation 2.27  
Year to date precipitation 12.13  
Sea Level Pressure  
Sea Level Pressure 29.87 in    
Wind  
Wind Speed 7 mph (WNW)    
Max Wind Speed 14 mph    
Max Gust Speed 20 mph    
Visibility 9 miles    
Events      
Averages and records for this station are not official NWS values.
T = Trace of Precipitation, MM = Missing Value Source: NWS Daily Summary

Daily Weather History Graph

Daily Weather History Graph

Search for Another Location

Airport:

Trip Planner

Search our weather history database for the weather conditions in past years. The results will help you decide how hot, cold, wet, or windy it might be!

Date:

Astronomy

Jun. 12, 2013 Rise Set
Actual Time 5:42 AM EDT 8:39 PM EDT
Civil Twilight 5:09 AM EDT 9:11 PM EDT
Nautical Twilight 4:28 AM EDT 9:53 PM EDT
Astronomical Twilight 3:41 AM EDT 10:40 PM EDT
Moon 9:19 AM EDT (6/12) 11:14 PM EDT (6/12)
Length of Visible Light 16h 02m
Length of Day
14h 56m
Waxing Crescent, 14% of the Moon is Illuminated
Jun 12
Waxing Crescent
Jun 16
First Quarter
Jun 23
Full
Jun 30
Last Quarter
Jul 8
New

Hourly Weather History & Observations

Time (EDT) Temp. Heat Index Dew Point Humidity Pressure Visibility Wind Dir Wind Speed Gust Speed Precip Events Conditions
12:53 AM 71.1 °F - 62.1 °F 73% 29.88 in 10.0 mi SW 3.5 mph - N/A   Partly Cloudy
1:53 AM 71.1 °F - 62.1 °F 73% 29.88 in 10.0 mi WSW 4.6 mph - N/A   Clear
2:53 AM 71.1 °F - 62.1 °F 73% 29.89 in 10.0 mi WSW 5.8 mph - N/A   Mostly Cloudy
3:53 AM 70.0 °F - 63.0 °F 78% 29.88 in 10.0 mi SW 5.8 mph - N/A   Overcast
4:53 AM 70.0 °F - 63.0 °F 78% 29.87 in 10.0 mi South 3.5 mph - N/A   Overcast
5:53 AM 68.0 °F - 63.0 °F 84% 29.88 in 10.0 mi Calm Calm - N/A   Overcast
6:53 AM 69.1 °F - 64.0 °F 84% 29.88 in 8.0 mi South 3.5 mph - N/A   Mostly Cloudy
7:53 AM 72.0 °F - 64.9 °F 78% 29.90 in 9.0 mi Calm Calm - N/A   Partly Cloudy
8:53 AM 75.0 °F - 66.0 °F 73% 29.90 in 10.0 mi West 9.2 mph - N/A   Partly Cloudy
9:53 AM 75.9 °F - 64.0 °F 67% 29.90 in 10.0 mi West 9.2 mph - N/A   Mostly Cloudy
10:53 AM 78.1 °F - 64.9 °F 64% 29.90 in 9.0 mi West 8.1 mph - N/A   Mostly Cloudy
11:53 AM 80.1 °F 82.1 °F 66.0 °F 62% 29.89 in 8.0 mi WNW 10.4 mph - N/A   Partly Cloudy
12:53 PM 82.0 °F 84.1 °F 66.0 °F 58% 29.89 in 7.0 mi NNW 10.4 mph 16.1 mph N/A   Clear
1:53 PM 82.9 °F 85.0 °F 66.0 °F 56% 29.88 in 8.0 mi NW 10.4 mph - N/A   Partly Cloudy
2:53 PM 84.0 °F 85.8 °F 64.9 °F 53% 29.87 in 9.0 mi WNW 6.9 mph - N/A   Partly Cloudy
3:53 PM 86.0 °F 86.8 °F 63.0 °F 46% 29.85 in 10.0 mi NW 10.4 mph - N/A   Clear
4:53 PM 86.0 °F 86.3 °F 62.1 °F 44% 29.83 in 10.0 mi NW 9.2 mph - N/A   Clear
5:53 PM 84.9 °F 85.0 °F 61.0 °F 44% 29.82 in 10.0 mi NW 8.1 mph - N/A   Clear
6:53 PM 82.9 °F 84.0 °F 63.0 °F 51% 29.85 in 10.0 mi North 5.8 mph - N/A   Scattered Clouds
7:53 PM 81.0 °F 81.9 °F 62.1 °F 52% 29.85 in 10.0 mi North 4.6 mph - N/A   Clear
8:53 PM 81.0 °F 81.9 °F 62.1 °F 52% 29.84 in 10.0 mi Calm Calm - N/A   Clear
9:53 PM 80.1 °F 81.5 °F 63.0 °F 56% 29.86 in 10.0 mi Calm Calm - N/A   Mostly Cloudy
10:53 PM 75.9 °F - 66.0 °F 71% 29.86 in 9.0 mi East 3.5 mph - N/A   Clear
11:53 PM 75.0 °F - 66.0 °F 73% 29.83 in 8.0 mi East 5.8 mph - N/A   Clear